IBE3397 ENBR-LEMD

Flight info

Callsign IBE3397
Flight time 3h 13m
Altitude 39000
Route TUXIL DCT ZOL DCT SUTEB/N0448F380 DCT SPY DCT NIK/N0450F390 N872 MEDIL DCT KOVIN DCT DUCRA DCT RESMI DCT DEKOD DCT DISAK DCT ARKIP DCT ARNAV DCT LMG DCT UVELI DCT OSMOB DCT ARVID DCT PPN DCT NOLSA DCT ALEPO DCT VASUM DCT GARVU DCT BANEV
Aircraft A20N/M-SDE2E3FGHIRWXY/LB1

Departure

Time 2026-05-05 07:48
Airport Bergen Airport, Flesland (ENBR)

Arrival

Time 2026-05-05 11:01
Airport Adolfo Suárez Madrid–Barajas Airport (LEMD)
Time Latitude Longitude Altitude Speed Heading
2026-05-05 07:24 60.28859 5.22563 161 ft 0 kts 71°
2026-05-05 07:38 60.28858 5.22560 161 ft 2 kts 70°
2026-05-05 07:39 60.28852 5.22532 161 ft 2 kts 59°
2026-05-05 07:39 60.28844 5.22507 161 ft 2 kts 49°
2026-05-05 07:39 60.28834 5.22485 161 ft 2 kts 39°
2026-05-05 07:39 60.28822 5.22467 160 ft 2 kts 29°
2026-05-05 07:40 60.28808 5.22454 160 ft 2 kts 19°
2026-05-05 07:40 60.28794 5.22446 160 ft 2 kts
2026-05-05 07:40 60.28783 5.22444 160 ft 0 kts
2026-05-05 07:41 60.28785 5.22443 160 ft 1 kts
2026-05-05 07:41 60.28818 5.22434 160 ft 9 kts 350°
2026-05-05 07:41 60.28906 5.22403 161 ft 15 kts 349°
2026-05-05 07:42 60.28971 5.22271 162 ft 13 kts 346°
2026-05-05 07:42 60.29069 5.22235 163 ft 16 kts 351°
2026-05-05 07:42 60.29183 5.22196 164 ft 18 kts 350°
2026-05-05 07:42 60.29312 5.22148 165 ft 20 kts 350°
2026-05-05 07:43 60.29445 5.22102 166 ft 20 kts 351°
2026-05-05 07:43 60.29584 5.22054 167 ft 21 kts 351°
2026-05-05 07:43 60.29728 5.22006 168 ft 21 kts 351°
2026-05-05 07:43 60.29868 5.21958 170 ft 20 kts 351°
2026-05-05 07:44 60.30001 5.21916 171 ft 20 kts 351°
2026-05-05 07:44 60.30136 5.21870 172 ft 19 kts 350°
2026-05-05 07:44 60.30271 5.21823 173 ft 20 kts 351°
2026-05-05 07:44 60.30407 5.21778 174 ft 18 kts 351°
2026-05-05 07:45 60.30529 5.21740 175 ft 17 kts 351°
2026-05-05 07:45 60.30646 5.21681 176 ft 17 kts 323°
2026-05-05 07:45 60.30660 5.21587 177 ft 0 kts 257°
2026-05-05 07:46 60.30655 5.21535 177 ft 9 kts 259°
2026-05-05 07:47 60.30621 5.21402 179 ft 12 kts 205°
2026-05-05 07:47 60.30523 5.21420 175 ft 20 kts 171°
2026-05-05 07:47 60.30199 5.21531 171 ft 82 kts 171°
2026-05-05 07:47 60.29433 5.21786 166 ft 138 kts 171°
2026-05-05 07:48 60.28464 5.22096 765 ft 129 kts 171°
2026-05-05 07:48 60.27535 5.22349 1223 ft 144 kts 175°
2026-05-05 07:48 60.26502 5.22648 1722 ft 156 kts 173°
2026-05-05 07:48 60.25382 5.23047 2184 ft 172 kts 173°
2026-05-05 07:49 60.24126 5.23501 2608 ft 195 kts 172°
2026-05-05 07:49 60.22724 5.23994 3131 ft 218 kts 173°
2026-05-05 07:49 60.21158 5.24533 3778 ft 239 kts 173°
2026-05-05 07:49 60.19444 5.25112 4457 ft 259 kts 173°
2026-05-05 07:50 60.17630 5.25723 5410 ft 267 kts 173°
2026-05-05 07:50 60.15781 5.26347 6444 ft 272 kts 174°
2026-05-05 07:50 60.13900 5.26980 7411 ft 276 kts 174°
2026-05-05 07:50 60.11989 5.27620 8395 ft 280 kts 174°
2026-05-05 07:51 60.10049 5.28266 9365 ft 285 kts 175°
2026-05-05 07:51 60.08076 5.28901 10279 ft 291 kts 176°
2026-05-05 07:51 60.05993 5.29468 10722 ft 313 kts 177°
2026-05-05 07:51 60.03756 5.30031 11109 ft 334 kts 176°
2026-05-05 07:52 60.01454 5.30622 11861 ft 341 kts 176°
2026-05-05 07:52 59.99085 5.31248 12734 ft 345 kts 177°
2026-05-05 07:52 59.96686 5.31889 13611 ft 350 kts 177°
2026-05-05 07:52 59.94263 5.32540 14367 ft 355 kts 178°
2026-05-05 07:53 59.91788 5.33204 15106 ft 361 kts 178°
2026-05-05 07:53 59.89284 5.33876 15833 ft 366 kts 179°
2026-05-05 07:53 59.86743 5.34558 16583 ft 371 kts 180°
2026-05-05 07:53 59.84165 5.35248 17322 ft 376 kts 181°
2026-05-05 07:54 59.81557 5.35945 18071 ft 380 kts 182°
2026-05-05 07:54 59.78925 5.36635 18730 ft 383 kts 184°
2026-05-05 07:54 59.76277 5.37138 19410 ft 382 kts 186°
2026-05-05 07:54 59.73617 5.37537 20057 ft 384 kts 187°
2026-05-05 07:55 59.70937 5.37927 20699 ft 387 kts 187°
2026-05-05 07:55 59.68242 5.38333 21314 ft 391 kts 188°
2026-05-05 07:55 59.65519 5.38761 21944 ft 394 kts 188°
2026-05-05 07:55 59.62778 5.39251 22551 ft 400 kts 186°
2026-05-05 07:56 59.60028 5.39931 23135 ft 405 kts 185°
2026-05-05 07:56 59.57225 5.40693 23684 ft 409 kts 185°
2026-05-05 07:56 59.54396 5.41457 24149 ft 412 kts 185°
2026-05-05 07:56 59.51543 5.42203 24640 ft 415 kts 185°
2026-05-05 07:57 59.48672 5.42937 25116 ft 418 kts 185°
2026-05-05 07:57 59.45773 5.43667 25609 ft 420 kts 184°
2026-05-05 07:57 59.42862 5.44394 26044 ft 424 kts 184°
2026-05-05 07:57 59.39917 5.45158 26490 ft 430 kts 181°
2026-05-05 07:58 59.36945 5.46221 26927 ft 435 kts 180°
2026-05-05 07:58 59.33960 5.47315 27345 ft 438 kts 180°
2026-05-05 07:58 59.30954 5.48415 27792 ft 440 kts 180°
2026-05-05 07:58 59.27933 5.49516 28200 ft 443 kts 180°
2026-05-05 07:59 59.24894 5.50618 28584 ft 446 kts 179°
2026-05-05 07:59 59.21834 5.51724 28973 ft 448 kts 179°
2026-05-05 07:59 59.18764 5.52832 29357 ft 450 kts 179°
2026-05-05 07:59 59.15709 5.53933 29720 ft 453 kts 179°
2026-05-05 08:00 59.12597 5.55052 30082 ft 455 kts 179°
2026-05-05 08:00 59.09470 5.56175 30417 ft 457 kts 179°
2026-05-05 08:00 59.06338 5.57297 30754 ft 459 kts 178°
2026-05-05 08:00 59.03187 5.58424 31090 ft 460 kts 178°
2026-05-05 08:01 59.00036 5.59551 31504 ft 460 kts 178°
2026-05-05 08:01 58.96893 5.60674 31938 ft 458 kts 178°
2026-05-05 08:01 58.93763 5.61790 32380 ft 457 kts 178°
2026-05-05 08:01 58.90676 5.62886 32804 ft 455 kts 178°
2026-05-05 08:02 58.87567 5.63701 33222 ft 447 kts 184°
2026-05-05 08:02 58.84481 5.63870 33613 ft 440 kts 189°
2026-05-05 08:02 58.81426 5.63622 33986 ft 438 kts 190°
2026-05-05 08:02 58.78379 5.63362 34271 ft 439 kts 190°
2026-05-05 08:03 58.75328 5.63112 34507 ft 440 kts 189°
2026-05-05 08:03 58.72260 5.62872 34749 ft 441 kts 189°
2026-05-05 08:03 58.69195 5.62641 34989 ft 441 kts 189°
2026-05-05 08:03 58.66123 5.62413 35225 ft 442 kts 189°
2026-05-05 08:04 58.63039 5.62186 35463 ft 443 kts 189°
2026-05-05 08:04 58.59957 5.61960 35706 ft 443 kts 189°
2026-05-05 08:04 58.56869 5.61734 35925 ft 444 kts 189°
2026-05-05 08:04 58.53778 5.61508 36142 ft 445 kts 189°
2026-05-05 08:05 58.50687 5.61282 36358 ft 445 kts 188°
2026-05-05 08:05 58.47589 5.61057 36571 ft 446 kts 188°
2026-05-05 08:05 58.44524 5.60834 36774 ft 446 kts 188°
2026-05-05 08:05 58.41421 5.60608 36986 ft 446 kts 188°
2026-05-05 08:06 58.38311 5.60383 37184 ft 447 kts 188°
2026-05-05 08:06 58.35204 5.60158 37384 ft 447 kts 188°
2026-05-05 08:06 58.32095 5.59933 37578 ft 447 kts 188°
2026-05-05 08:06 58.28988 5.59709 37783 ft 447 kts 188°
2026-05-05 08:07 58.25868 5.59485 37963 ft 448 kts 188°
2026-05-05 08:07 58.22757 5.59261 38138 ft 448 kts 188°
2026-05-05 08:07 58.19635 5.59037 38314 ft 448 kts 188°
2026-05-05 08:07 58.16520 5.58813 38495 ft 448 kts 188°
2026-05-05 08:08 58.13403 5.58591 38667 ft 448 kts 188°
2026-05-05 08:08 58.10285 5.58368 38803 ft 448 kts 188°
2026-05-05 08:08 58.07172 5.58146 38942 ft 448 kts 188°
2026-05-05 08:08 58.04055 5.57925 39007 ft 448 kts 187°
2026-05-05 08:09 57.97834 5.57485 39016 ft 445 kts 187°
2026-05-05 08:09 57.91635 5.57046 39017 ft 446 kts 187°
2026-05-05 08:10 57.85424 5.56607 39017 ft 446 kts 187°
2026-05-05 08:10 57.79227 5.56172 39019 ft 445 kts 187°
2026-05-05 08:11 57.73069 5.55740 39019 ft 445 kts 187°
2026-05-05 08:11 57.66876 5.55309 39018 ft 445 kts 187°
2026-05-05 08:12 57.60673 5.54878 39020 ft 445 kts 187°
2026-05-05 08:12 57.54474 5.54449 39020 ft 445 kts 187°
2026-05-05 08:13 57.48325 5.54025 39019 ft 445 kts 187°
2026-05-05 08:13 57.42134 5.53600 39023 ft 445 kts 187°
2026-05-05 08:14 57.35948 5.53176 39023 ft 445 kts 187°
2026-05-05 08:14 57.29757 5.52753 39020 ft 445 kts 187°
2026-05-05 08:15 57.23570 5.52332 39017 ft 445 kts 187°
2026-05-05 08:15 57.17386 5.51913 39018 ft 444 kts 187°
2026-05-05 08:16 57.11205 5.51495 39019 ft 444 kts 187°
2026-05-05 08:16 57.05069 5.51081 39020 ft 444 kts 187°
2026-05-05 08:17 56.98891 5.50667 39016 ft 444 kts 187°
2026-05-05 08:17 56.92691 5.50373 39016 ft 444 kts 186°
2026-05-05 08:18 56.86498 5.50107 39015 ft 444 kts 186°
2026-05-05 08:18 56.80321 5.49827 39013 ft 444 kts 186°
2026-05-05 08:19 56.74141 5.49542 39020 ft 444 kts 186°
2026-05-05 08:19 56.68002 5.49260 39016 ft 444 kts 186°
2026-05-05 08:20 56.61822 5.48977 39008 ft 444 kts 186°
2026-05-05 08:20 56.55632 5.48694 39010 ft 444 kts 186°
2026-05-05 08:21 56.49449 5.48413 39014 ft 444 kts 186°
2026-05-05 08:21 56.44309 5.48180 39005 ft 444 kts 186°
2026-05-05 08:22 56.38134 5.47901 39007 ft 444 kts 186°
2026-05-05 08:22 56.31954 5.47622 39002 ft 444 kts 186°
2026-05-05 08:23 56.25777 5.47344 39007 ft 444 kts 186°
2026-05-05 08:23 56.19639 5.47069 39008 ft 443 kts 186°
2026-05-05 08:24 56.13467 5.46794 39008 ft 443 kts 186°
2026-05-05 08:24 56.07295 5.46519 39006 ft 443 kts 186°
2026-05-05 08:25 56.01132 5.46246 39008 ft 443 kts 186°
2026-05-05 08:25 55.94967 5.45973 39008 ft 443 kts 186°
2026-05-05 08:26 55.88812 5.45702 39009 ft 443 kts 186°
2026-05-05 08:26 55.82646 5.45430 39004 ft 442 kts 186°
2026-05-05 08:27 55.76528 5.45162 39007 ft 442 kts 186°
2026-05-05 08:27 55.70373 5.44893 39000 ft 442 kts 185°
2026-05-05 08:28 55.64223 5.44625 39003 ft 442 kts 185°
2026-05-05 08:28 55.58075 5.44359 39006 ft 442 kts 185°
2026-05-05 08:29 55.51919 5.44093 39004 ft 441 kts 185°
2026-05-05 08:30 55.42719 5.43696 39005 ft 441 kts 185°
2026-05-05 08:30 55.36620 5.43434 39010 ft 441 kts 185°
2026-05-05 08:31 55.30483 5.43172 39012 ft 441 kts 185°
2026-05-05 08:31 55.24347 5.42910 39012 ft 440 kts 185°
2026-05-05 08:32 55.18219 5.42650 39008 ft 440 kts 185°
2026-05-05 08:32 55.12100 5.42390 39010 ft 439 kts 185°
2026-05-05 08:33 55.05988 5.42132 39012 ft 439 kts 185°
2026-05-05 08:33 54.99889 5.41783 39012 ft 437 kts 188°
2026-05-05 08:34 54.93874 5.40435 39009 ft 435 kts 191°
2026-05-05 08:34 54.87920 5.38955 39015 ft 435 kts 191°
2026-05-05 08:35 54.81918 5.37493 39003 ft 434 kts 191°
2026-05-05 08:35 54.75936 5.36049 39003 ft 434 kts 191°
2026-05-05 08:36 54.70046 5.34633 39005 ft 433 kts 191°
2026-05-05 08:36 54.64067 5.33199 39002 ft 433 kts 191°
2026-05-05 08:37 54.58129 5.31779 39000 ft 433 kts 191°
2026-05-05 08:37 54.52165 5.30357 39000 ft 433 kts 191°
2026-05-05 08:38 54.46190 5.28937 39003 ft 433 kts 191°
2026-05-05 08:38 54.40222 5.27523 38999 ft 433 kts 191°
2026-05-05 08:39 54.34251 5.26112 38999 ft 433 kts 191°
2026-05-05 08:39 54.28275 5.24704 38998 ft 433 kts 191°
2026-05-05 08:40 54.22300 5.23300 39000 ft 433 kts 191°
2026-05-05 08:40 54.16317 5.21899 38999 ft 434 kts 191°
2026-05-05 08:41 54.10328 5.20500 38999 ft 434 kts 191°
2026-05-05 08:41 54.04339 5.19105 39003 ft 434 kts 191°
2026-05-05 08:42 53.98384 5.17723 39001 ft 435 kts 191°
2026-05-05 08:42 53.92382 5.16333 39008 ft 435 kts 191°
2026-05-05 08:43 53.86383 5.14948 39009 ft 435 kts 191°
2026-05-05 08:43 53.80362 5.13562 39006 ft 435 kts 191°
2026-05-05 08:44 53.74392 5.12192 39013 ft 436 kts 191°
2026-05-05 08:44 53.68379 5.10816 39013 ft 436 kts 191°
2026-05-05 08:45 53.62359 5.09442 39014 ft 436 kts 191°
2026-05-05 08:45 53.56341 5.08073 39014 ft 436 kts 191°
2026-05-05 08:46 53.50321 5.06707 39007 ft 436 kts 191°
2026-05-05 08:46 53.44295 5.05344 38995 ft 437 kts 191°
2026-05-05 08:47 53.38271 5.03985 39003 ft 437 kts 191°
2026-05-05 08:47 53.32284 5.02638 38989 ft 437 kts 190°
2026-05-05 08:48 53.26254 5.01285 38984 ft 437 kts 190°
2026-05-05 08:48 53.20225 4.99936 38993 ft 437 kts 190°
2026-05-05 08:49 53.14234 4.98600 38988 ft 437 kts 190°
2026-05-05 08:49 53.08206 4.97259 38988 ft 437 kts 190°
2026-05-05 08:50 53.02177 4.95922 38991 ft 437 kts 190°
2026-05-05 08:50 52.96144 4.94588 38985 ft 437 kts 190°
2026-05-05 08:51 52.90111 4.93257 38994 ft 437 kts 190°
2026-05-05 08:51 52.84084 4.91932 38992 ft 437 kts 190°
2026-05-05 08:52 52.78056 4.90610 38988 ft 437 kts 190°
2026-05-05 08:52 52.72067 4.89300 38987 ft 437 kts 190°
2026-05-05 08:53 52.66036 4.87985 38975 ft 438 kts 190°
2026-05-05 08:53 52.59933 4.86655 38955 ft 443 kts 190°
2026-05-05 08:54 52.53930 4.85170 38950 ft 431 kts 194°
2026-05-05 08:54 52.48144 4.82480 38945 ft 433 kts 199°
2026-05-05 08:55 52.44295 4.80517 38939 ft 429 kts 199°
2026-05-05 08:55 52.38576 4.77637 38940 ft 433 kts 199°
2026-05-05 08:56 52.32793 4.74751 38939 ft 434 kts 199°
2026-05-05 08:56 52.27020 4.71882 38939 ft 433 kts 199°
2026-05-05 08:57 52.21237 4.69014 38939 ft 434 kts 199°
2026-05-05 08:57 52.15460 4.66157 38931 ft 434 kts 199°
2026-05-05 08:57 52.12608 4.64750 38813 ft 431 kts 199°
2026-05-05 08:58 52.09749 4.63342 38436 ft 429 kts 199°
2026-05-05 08:58 52.06906 4.61943 38028 ft 424 kts 199°
2026-05-05 08:58 52.04074 4.60552 37940 ft 426 kts 199°
2026-05-05 08:59 51.98351 4.57741 37936 ft 431 kts 199°
2026-05-05 08:59 51.92616 4.54936 37937 ft 429 kts 199°
2026-05-05 09:00 51.86898 4.52146 37939 ft 428 kts 199°
2026-05-05 09:00 51.81236 4.49391 37934 ft 427 kts 199°
2026-05-05 09:01 51.75550 4.46631 37928 ft 426 kts 199°
2026-05-05 09:01 51.69888 4.43890 37928 ft 425 kts 199°
2026-05-05 09:02 51.64236 4.41161 37927 ft 424 kts 199°
2026-05-05 09:02 51.58575 4.38434 37928 ft 423 kts 199°
2026-05-05 09:03 51.52927 4.35721 37931 ft 423 kts 198°
2026-05-05 09:03 51.47286 4.33019 37924 ft 423 kts 198°
2026-05-05 09:04 51.41687 4.30343 37927 ft 423 kts 198°
2026-05-05 09:04 51.36034 4.27648 37924 ft 423 kts 198°
2026-05-05 09:05 51.30392 4.24966 37923 ft 423 kts 198°
2026-05-05 09:05 51.24753 4.22292 37927 ft 423 kts 198°
2026-05-05 09:06 51.19137 4.19635 37925 ft 423 kts 198°
2026-05-05 09:06 51.13510 4.16877 37922 ft 423 kts 200°
2026-05-05 09:07 51.07948 4.13756 37922 ft 424 kts 201°
2026-05-05 09:07 51.02372 4.10648 37910 ft 424 kts 200°
2026-05-05 09:08 50.96787 4.07587 37912 ft 424 kts 200°
2026-05-05 09:08 50.91195 4.04541 37910 ft 425 kts 200°
2026-05-05 09:09 50.86576 4.01925 37907 ft 425 kts 203°
2026-05-05 09:09 50.81100 3.98399 37906 ft 425 kts 203°
2026-05-05 09:10 50.74727 3.94311 37912 ft 425 kts 203°
2026-05-05 09:10 50.70165 3.91401 37913 ft 425 kts 203°
2026-05-05 09:11 50.64678 3.87909 37912 ft 425 kts 203°
2026-05-05 09:11 50.59199 3.84432 37907 ft 424 kts 203°
2026-05-05 09:12 50.53744 3.80874 37909 ft 424 kts 204°
2026-05-05 09:12 50.48346 3.77137 37905 ft 423 kts 204°
2026-05-05 09:13 50.42945 3.73430 37896 ft 423 kts 204°
2026-05-05 09:13 50.37588 3.69786 37896 ft 422 kts 204°
2026-05-05 09:14 50.32198 3.66133 37910 ft 422 kts 204°
2026-05-05 09:14 50.26806 3.62492 37894 ft 421 kts 204°
2026-05-05 09:15 50.21421 3.58863 37888 ft 421 kts 204°
2026-05-05 09:15 50.16040 3.55245 37892 ft 421 kts 204°
2026-05-05 09:16 50.10663 3.51639 37888 ft 421 kts 204°
2026-05-05 09:16 50.05283 3.48041 37887 ft 421 kts 204°
2026-05-05 09:17 49.99931 3.44469 37886 ft 421 kts 203°
2026-05-05 09:17 49.94539 3.40881 37878 ft 421 kts 203°
2026-05-05 09:18 49.89146 3.37299 37882 ft 421 kts 203°
2026-05-05 09:18 49.83747 3.33722 37891 ft 422 kts 203°
2026-05-05 09:19 49.78342 3.30151 37894 ft 422 kts 203°
2026-05-05 09:19 49.72971 3.26610 37878 ft 423 kts 203°
2026-05-05 09:20 49.67544 3.23042 37876 ft 423 kts 203°
2026-05-05 09:20 49.62127 3.19488 37889 ft 423 kts 203°
2026-05-05 09:21 49.56701 3.15938 37878 ft 424 kts 203°
2026-05-05 09:21 49.51258 3.12382 37882 ft 425 kts 203°
2026-05-05 09:22 49.46046 3.08123 37877 ft 425 kts 212°
2026-05-05 09:22 49.41123 3.03076 37890 ft 425 kts 213°
2026-05-05 09:23 49.36192 2.98049 37871 ft 425 kts 213°
2026-05-05 09:23 49.31255 2.93048 37884 ft 425 kts 212°
2026-05-05 09:24 49.26302 2.88049 37882 ft 427 kts 212°
2026-05-05 09:24 49.21349 2.83060 37876 ft 426 kts 212°
2026-05-05 09:25 49.16422 2.78110 37870 ft 426 kts 212°
2026-05-05 09:25 49.11464 2.73142 37867 ft 426 kts 212°
2026-05-05 09:26 49.06507 2.68184 37853 ft 425 kts 212°
2026-05-05 09:26 49.01561 2.63252 37845 ft 425 kts 212°
2026-05-05 09:27 48.96630 2.58345 37840 ft 425 kts 212°
2026-05-05 09:27 48.91672 2.53423 37837 ft 426 kts 212°
2026-05-05 09:28 48.86707 2.48507 37835 ft 426 kts 212°
2026-05-05 09:28 48.81737 2.43596 37837 ft 427 kts 212°
2026-05-05 09:29 48.76741 2.38673 37834 ft 427 kts 212°
2026-05-05 09:29 48.71772 2.33788 37847 ft 430 kts 212°
2026-05-05 09:30 48.66742 2.28854 37862 ft 433 kts 212°
2026-05-05 09:30 48.61681 2.23912 37857 ft 431 kts 210°
2026-05-05 09:31 48.56342 2.19803 37851 ft 431 kts 201°
2026-05-05 09:31 48.50618 2.17119 37841 ft 430 kts 192°
2026-05-05 09:32 48.44755 2.15271 37840 ft 431 kts 192°
2026-05-05 09:32 48.38882 2.13390 37833 ft 432 kts 192°
2026-05-05 09:33 48.33009 2.11554 37828 ft 433 kts 189°
2026-05-05 09:33 48.27027 2.10779 37829 ft 431 kts 180°
2026-05-05 09:34 48.21032 2.11480 37824 ft 433 kts 172°
2026-05-05 09:34 48.15057 2.12607 37825 ft 432 kts 177°
2026-05-05 09:35 48.09045 2.12404 37826 ft 432 kts 186°
2026-05-05 09:35 48.00130 2.10646 37830 ft 432 kts 187°
2026-05-05 09:36 47.94148 2.09494 37834 ft 433 kts 187°
2026-05-05 09:36 47.88168 2.08353 37839 ft 433 kts 187°
2026-05-05 09:37 47.82221 2.07222 37835 ft 433 kts 187°
2026-05-05 09:37 47.76226 2.06083 37836 ft 433 kts 187°
2026-05-05 09:38 47.70246 2.04950 37826 ft 432 kts 187°
2026-05-05 09:38 47.64358 2.03608 37820 ft 430 kts 193°
2026-05-05 09:39 47.58638 2.00988 37825 ft 431 kts 201°
2026-05-05 09:39 47.53062 1.97700 37832 ft 431 kts 201°
2026-05-05 09:40 47.47480 1.94451 37839 ft 431 kts 201°
2026-05-05 09:40 47.41897 1.91226 37852 ft 431 kts 201°
2026-05-05 09:41 47.36312 1.88009 37855 ft 431 kts 201°
2026-05-05 09:41 47.30722 1.84796 37858 ft 431 kts 201°
2026-05-05 09:42 47.25132 1.81590 37857 ft 431 kts 201°
2026-05-05 09:42 47.19545 1.78394 37859 ft 431 kts 201°
2026-05-05 09:43 47.13975 1.75251 37861 ft 432 kts 201°
2026-05-05 09:43 47.08364 1.72097 37864 ft 433 kts 201°
2026-05-05 09:44 47.02750 1.68944 37854 ft 430 kts 201°
2026-05-05 09:44 46.97155 1.65808 37854 ft 431 kts 201°
2026-05-05 09:45 46.91542 1.62668 37855 ft 431 kts 201°
2026-05-05 09:45 46.85935 1.59540 37858 ft 431 kts 201°
2026-05-05 09:46 46.80348 1.56429 37860 ft 431 kts 201°
2026-05-05 09:46 46.74732 1.53310 37859 ft 432 kts 201°
2026-05-05 09:47 46.69113 1.50195 37863 ft 432 kts 201°
2026-05-05 09:47 46.63488 1.47084 37869 ft 432 kts 201°
2026-05-05 09:48 46.57853 1.43975 37873 ft 432 kts 201°
2026-05-05 09:48 46.52234 1.40882 37876 ft 432 kts 201°
2026-05-05 09:49 46.46647 1.37813 37879 ft 432 kts 201°
2026-05-05 09:49 46.41022 1.34729 37877 ft 432 kts 201°
2026-05-05 09:50 46.35389 1.31649 37881 ft 432 kts 201°
2026-05-05 09:50 46.29760 1.28577 37887 ft 432 kts 201°
2026-05-05 09:51 46.24141 1.25517 37890 ft 432 kts 201°
2026-05-05 09:51 46.18519 1.22463 37890 ft 431 kts 201°
2026-05-05 09:52 46.12936 1.19436 37896 ft 431 kts 201°
2026-05-05 09:52 46.07309 1.16392 37903 ft 431 kts 201°
2026-05-05 09:53 46.01686 1.13356 37903 ft 432 kts 201°
2026-05-05 09:53 45.96045 1.10318 37908 ft 432 kts 201°
2026-05-05 09:54 45.90417 1.07294 37907 ft 432 kts 201°
2026-05-05 09:54 45.84824 1.04146 37907 ft 432 kts 205°
2026-05-05 09:55 45.79603 0.99920 37905 ft 432 kts 214°
2026-05-05 09:55 45.74922 0.94625 37904 ft 432 kts 220°
2026-05-05 09:56 45.70401 0.89163 37907 ft 432 kts 220°
2026-05-05 09:56 45.66676 0.84705 37918 ft 429 kts 219°
2026-05-05 09:57 45.62056 0.79198 37921 ft 433 kts 219°
2026-05-05 09:57 45.58211 0.74626 37922 ft 432 kts 219°
2026-05-05 09:58 45.53581 0.69131 37926 ft 432 kts 219°
2026-05-05 09:58 45.48953 0.63650 37930 ft 432 kts 219°
2026-05-05 09:59 45.44315 0.58171 37930 ft 432 kts 219°
2026-05-05 09:59 45.39689 0.52716 37930 ft 431 kts 219°
2026-05-05 10:00 45.35067 0.47278 37928 ft 431 kts 219°
2026-05-05 10:00 45.30442 0.41849 37927 ft 431 kts 219°
2026-05-05 10:01 45.25850 0.36471 37925 ft 431 kts 219°
2026-05-05 10:01 45.21227 0.31068 37932 ft 430 kts 219°
2026-05-05 10:02 45.16604 0.25676 37935 ft 430 kts 219°
2026-05-05 10:02 45.11974 0.20288 37937 ft 430 kts 219°
2026-05-05 10:03 45.07338 0.14905 37938 ft 431 kts 219°
2026-05-05 10:03 45.02695 0.09523 37946 ft 431 kts 219°
2026-05-05 10:04 44.98084 0.04194 37946 ft 431 kts 219°
2026-05-05 10:04 44.93416 -0.01191 37947 ft 430 kts 219°
2026-05-05 10:05 44.88800 -0.06503 37954 ft 430 kts 219°
2026-05-05 10:05 44.84159 -0.11834 37952 ft 430 kts 219°
2026-05-05 10:06 44.79518 -0.17154 37952 ft 430 kts 219°
2026-05-05 10:06 44.74869 -0.22471 37959 ft 430 kts 219°
2026-05-05 10:07 44.70220 -0.27777 37956 ft 430 kts 219°
2026-05-05 10:07 44.65506 -0.32963 37962 ft 431 kts 215°
2026-05-05 10:08 44.60348 -0.37225 37962 ft 431 kts 208°
2026-05-05 10:08 44.55020 -0.41107 37959 ft 431 kts 208°
2026-05-05 10:09 44.49702 -0.45006 37964 ft 431 kts 209°
2026-05-05 10:09 44.44392 -0.48898 37970 ft 431 kts 209°
2026-05-05 10:10 44.39109 -0.52761 37971 ft 431 kts 209°
2026-05-05 10:10 44.33801 -0.56635 37970 ft 430 kts 209°
2026-05-05 10:11 44.28482 -0.60508 37973 ft 430 kts 209°
2026-05-05 10:11 44.23197 -0.64348 37569 ft 426 kts 209°
2026-05-05 10:12 44.20579 -0.66248 37133 ft 423 kts 209°
2026-05-05 10:12 44.17961 -0.68146 36997 ft 424 kts 209°
2026-05-05 10:12 44.12674 -0.71975 36987 ft 430 kts 209°
2026-05-05 10:13 44.07373 -0.75803 36987 ft 428 kts 209°
2026-05-05 10:13 44.02112 -0.79596 36993 ft 428 kts 209°
2026-05-05 10:14 43.96821 -0.83403 36994 ft 428 kts 209°
2026-05-05 10:14 43.91525 -0.87205 36999 ft 427 kts 209°
2026-05-05 10:15 43.86242 -0.90991 37010 ft 427 kts 209°
2026-05-05 10:15 43.80969 -0.94761 37010 ft 426 kts 209°
2026-05-05 10:16 43.75695 -0.98525 37014 ft 426 kts 209°
2026-05-05 10:16 43.70431 -1.02275 37012 ft 425 kts 209°
2026-05-05 10:17 43.65205 -1.05990 37011 ft 425 kts 209°
2026-05-05 10:17 43.59937 -1.09726 37015 ft 425 kts 209°
2026-05-05 10:18 43.54674 -1.13453 37008 ft 425 kts 209°
2026-05-05 10:18 43.49412 -1.17172 37007 ft 425 kts 209°
2026-05-05 10:19 43.44158 -1.20878 37013 ft 424 kts 209°
2026-05-05 10:19 43.38895 -1.24582 37022 ft 425 kts 209°
2026-05-05 10:20 43.33661 -1.28258 37023 ft 425 kts 209°
2026-05-05 10:20 43.28393 -1.31952 37020 ft 425 kts 209°
2026-05-05 10:21 43.23126 -1.35638 37023 ft 425 kts 209°
2026-05-05 10:21 43.17855 -1.39319 37015 ft 424 kts 209°
2026-05-05 10:22 43.12584 -1.42993 37012 ft 424 kts 209°
2026-05-05 10:22 43.07347 -1.46639 37009 ft 424 kts 209°
2026-05-05 10:23 43.02094 -1.50297 36999 ft 424 kts 209°
2026-05-05 10:23 42.96834 -1.53957 37000 ft 423 kts 209°
2026-05-05 10:24 42.91582 -1.57603 36993 ft 423 kts 209°
2026-05-05 10:24 42.86331 -1.61243 36993 ft 423 kts 209°
2026-05-05 10:25 42.81072 -1.64880 36994 ft 423 kts 209°
2026-05-05 10:25 42.75847 -1.68487 36995 ft 423 kts 209°
2026-05-05 10:26 42.70586 -1.72094 36994 ft 423 kts 209°
2026-05-05 10:26 42.65306 -1.75638 36999 ft 423 kts 209°
2026-05-05 10:27 42.60024 -1.79179 36997 ft 423 kts 209°
2026-05-05 10:27 42.54744 -1.82719 36996 ft 423 kts 209°
2026-05-05 10:28 42.49473 -1.86249 36995 ft 422 kts 209°
2026-05-05 10:28 42.44206 -1.89768 36994 ft 422 kts 209°
2026-05-05 10:29 42.38939 -1.93282 36990 ft 422 kts 209°
2026-05-05 10:29 42.33704 -1.96766 36988 ft 421 kts 209°
2026-05-05 10:30 42.28445 -2.00259 36981 ft 421 kts 209°
2026-05-05 10:30 42.23192 -2.03743 36986 ft 420 kts 209°
2026-05-05 10:31 42.17948 -2.07214 36980 ft 419 kts 209°
2026-05-05 10:31 42.12706 -2.10676 36978 ft 419 kts 209°
2026-05-05 10:32 42.07464 -2.14134 36972 ft 418 kts 209°
2026-05-05 10:32 42.02235 -2.17576 36963 ft 418 kts 209°
2026-05-05 10:33 41.97040 -2.20990 36970 ft 418 kts 209°
2026-05-05 10:33 41.91808 -2.24421 36971 ft 418 kts 210°
2026-05-05 10:34 41.86582 -2.27841 36977 ft 418 kts 210°
2026-05-05 10:34 41.81354 -2.31257 36979 ft 418 kts 210°
2026-05-05 10:35 41.76127 -2.34666 36984 ft 417 kts 210°
2026-05-05 10:35 41.70901 -2.38068 36986 ft 417 kts 210°
2026-05-05 10:36 41.65707 -2.41443 36987 ft 416 kts 210°
2026-05-05 10:36 41.60505 -2.44818 36957 ft 415 kts 210°
2026-05-05 10:37 41.57901 -2.46504 36623 ft 414 kts 210°
2026-05-05 10:37 41.55300 -2.48187 35971 ft 416 kts 210°
2026-05-05 10:37 41.52690 -2.49876 35145 ft 419 kts 210°
2026-05-05 10:37 41.50052 -2.51582 34325 ft 421 kts 210°
2026-05-05 10:38 41.47417 -2.53281 33502 ft 420 kts 211°
2026-05-05 10:38 41.44786 -2.54976 32613 ft 419 kts 211°
2026-05-05 10:38 41.42154 -2.56671 31693 ft 419 kts 211°
2026-05-05 10:38 41.39530 -2.58359 30806 ft 419 kts 211°
2026-05-05 10:39 41.36910 -2.60044 29859 ft 418 kts 211°
2026-05-05 10:39 41.34246 -2.61480 29095 ft 419 kts 203°
2026-05-05 10:39 41.31419 -2.62344 28581 ft 416 kts 195°
2026-05-05 10:39 41.28532 -2.62614 27948 ft 417 kts 186°
2026-05-05 10:40 41.25634 -2.62385 27314 ft 414 kts 183°
2026-05-05 10:40 41.22772 -2.62115 26683 ft 409 kts 184°
2026-05-05 10:40 41.19945 -2.61857 26053 ft 404 kts 184°
2026-05-05 10:40 41.17151 -2.61605 25434 ft 400 kts 184°
2026-05-05 10:41 41.14391 -2.61359 24810 ft 395 kts 184°
2026-05-05 10:41 41.11658 -2.61117 24165 ft 392 kts 184°
2026-05-05 10:41 41.08987 -2.60880 23542 ft 389 kts 184°
2026-05-05 10:41 41.06298 -2.60642 22907 ft 383 kts 183°
2026-05-05 10:42 41.01043 -2.60176 21697 ft 374 kts 183°
2026-05-05 10:42 40.98463 -2.59949 21098 ft 370 kts 183°
2026-05-05 10:42 40.95903 -2.59725 20616 ft 365 kts 182°
2026-05-05 10:43 40.93346 -2.59505 20168 ft 372 kts 182°
2026-05-05 10:43 40.90758 -2.59283 19704 ft 372 kts 182°
2026-05-05 10:43 40.88191 -2.59057 19252 ft 368 kts 181°
2026-05-05 10:43 40.85669 -2.58902 18798 ft 363 kts 188°
2026-05-05 10:44 40.83224 -2.59553 18357 ft 355 kts 205°
2026-05-05 10:44 40.81104 -2.61138 17890 ft 348 kts 222°
2026-05-05 10:44 40.79943 -2.62580 17603 ft 344 kts 228°
2026-05-05 10:44 40.78264 -2.64839 17185 ft 343 kts 228°
2026-05-05 10:45 40.76037 -2.67830 16623 ft 341 kts 227°
2026-05-05 10:45 40.74935 -2.69304 16350 ft 340 kts 227°
2026-05-05 10:45 40.73275 -2.71524 15921 ft 339 kts 227°
2026-05-05 10:45 40.71080 -2.74450 15357 ft 338 kts 227°
2026-05-05 10:46 40.69427 -2.76651 14955 ft 338 kts 227°
2026-05-05 10:46 40.68312 -2.78134 14672 ft 337 kts 227°
2026-05-05 10:46 40.66659 -2.80316 14262 ft 336 kts 225°
2026-05-05 10:46 40.64856 -2.82279 13871 ft 337 kts 217°
2026-05-05 10:47 40.62869 -2.83931 13566 ft 337 kts 213°
2026-05-05 10:47 40.60901 -2.85587 13270 ft 334 kts 221°
2026-05-05 10:47 40.59340 -2.87820 13094 ft 331 kts 230°
2026-05-05 10:47 40.57573 -2.89719 12842 ft 335 kts 214°
2026-05-05 10:48 40.55524 -2.91195 12569 ft 335 kts 209°
2026-05-05 10:48 40.53446 -2.92574 12318 ft 334 kts 209°
2026-05-05 10:48 40.51398 -2.93989 12068 ft 333 kts 210°
2026-05-05 10:48 40.49372 -2.95465 11800 ft 332 kts 211°
2026-05-05 10:49 40.47382 -2.96972 11540 ft 330 kts 212°
2026-05-05 10:49 40.45402 -2.98503 11287 ft 329 kts 212°
2026-05-05 10:49 40.43431 -3.00035 11033 ft 329 kts 212°
2026-05-05 10:49 40.41460 -3.01565 10605 ft 330 kts 212°
2026-05-05 10:50 40.39486 -3.03093 10237 ft 325 kts 212°
2026-05-05 10:50 40.37579 -3.04564 10088 ft 311 kts 212°
2026-05-05 10:50 40.35755 -3.05966 9972 ft 297 kts 212°
2026-05-05 10:50 40.34009 -3.07309 9769 ft 286 kts 212°
2026-05-05 10:51 40.32311 -3.08616 9411 ft 281 kts 212°
2026-05-05 10:51 40.30636 -3.09905 9026 ft 277 kts 212°
2026-05-05 10:51 40.28983 -3.11177 8640 ft 274 kts 212°
2026-05-05 10:51 40.27425 -3.12575 8270 ft 268 kts 227°
2026-05-05 10:52 40.26448 -3.14594 7906 ft 262 kts 252°
2026-05-05 10:52 40.26259 -3.16860 7792 ft 250 kts 276°
2026-05-05 10:52 40.26544 -3.19033 7663 ft 234 kts 279°
2026-05-05 10:52 40.26817 -3.21050 7538 ft 217 kts 278°
2026-05-05 10:53 40.27066 -3.22923 7402 ft 201 kts 278°
2026-05-05 10:53 40.27293 -3.24661 7285 ft 185 kts 278°
2026-05-05 10:53 40.27497 -3.26223 7239 ft 165 kts 278°
2026-05-05 10:53 40.27681 -3.27628 7161 ft 146 kts 277°
2026-05-05 10:54 40.27847 -3.28889 7002 ft 137 kts 277°
2026-05-05 10:54 40.28005 -3.30112 6703 ft 136 kts 277°
2026-05-05 10:54 40.28166 -3.31340 6386 ft 137 kts 279°
2026-05-05 10:54 40.28468 -3.32524 6111 ft 137 kts 292°
2026-05-05 10:55 40.28962 -3.33586 5843 ft 137 kts 304°
2026-05-05 10:55 40.29570 -3.34498 5708 ft 133 kts 307°
2026-05-05 10:55 40.30191 -3.35445 5563 ft 139 kts 306°
2026-05-05 10:55 40.30804 -3.36394 5421 ft 137 kts 306°
2026-05-05 10:56 40.31421 -3.37345 5268 ft 137 kts 308°
2026-05-05 10:56 40.32113 -3.38202 5116 ft 138 kts 316°
2026-05-05 10:56 40.32879 -3.38961 5004 ft 137 kts 318°
2026-05-05 10:56 40.33640 -3.39720 4995 ft 138 kts 319°
2026-05-05 10:57 40.34416 -3.40477 4998 ft 140 kts 319°
2026-05-05 10:57 40.35192 -3.41260 4923 ft 140 kts 318°
2026-05-05 10:57 40.35961 -3.42039 4740 ft 139 kts 318°
2026-05-05 10:57 40.36729 -3.42817 4568 ft 139 kts 317°
2026-05-05 10:58 40.37495 -3.43596 4372 ft 139 kts 317°
2026-05-05 10:58 40.38261 -3.44373 4197 ft 139 kts 317°
2026-05-05 10:58 40.39026 -3.45148 4011 ft 138 kts 317°
2026-05-05 10:58 40.39788 -3.45920 3823 ft 138 kts 317°
2026-05-05 10:59 40.40539 -3.46683 3640 ft 138 kts 318°
2026-05-05 10:59 40.41292 -3.47449 3461 ft 136 kts 318°
2026-05-05 10:59 40.42037 -3.48206 3266 ft 134 kts 318°
2026-05-05 10:59 40.42779 -3.48950 3084 ft 135 kts 319°
2026-05-05 11:00 40.43528 -3.49722 2875 ft 139 kts 317°
2026-05-05 11:00 40.44279 -3.50528 2735 ft 140 kts 320°
2026-05-05 11:00 40.45057 -3.51303 2537 ft 140 kts 321°
2026-05-05 11:00 40.45832 -3.52073 2376 ft 137 kts 319°
2026-05-05 11:01 40.46593 -3.52840 2200 ft 138 kts 319°
2026-05-05 11:01 40.47342 -3.53600 1998 ft 132 kts 317°
2026-05-05 11:01 40.47963 -3.54246 1980 ft 87 kts 322°
2026-05-05 11:01 40.48282 -3.54555 1982 ft 29 kts 324°
2026-05-05 11:02 40.48371 -3.54647 1980 ft 19 kts 320°
2026-05-05 11:02 40.48501 -3.54789 1980 ft 27 kts 323°
2026-05-05 11:02 40.48653 -3.54943 1980 ft 28 kts 321°
2026-05-05 11:02 40.48780 -3.55141 1981 ft 29 kts 296°
2026-05-05 11:03 40.48828 -3.55300 1981 ft 14 kts 291°
2026-05-05 11:03 40.48871 -3.55426 1980 ft 16 kts 302°
2026-05-05 11:03 40.48958 -3.55536 1980 ft 18 kts 319°
2026-05-05 11:03 40.49065 -3.55646 1980 ft 21 kts 322°
2026-05-05 11:04 40.49184 -3.55764 1982 ft 22 kts 322°
2026-05-05 11:04 40.49294 -3.55889 1980 ft 17 kts 297°
2026-05-05 11:04 40.49300 -3.56046 1980 ft 18 kts 271°
2026-05-05 11:04 40.49240 -3.56144 1980 ft 13 kts 177°
2026-05-05 11:05 40.49139 -3.56146 1980 ft 16 kts 181°
2026-05-05 11:05 40.49019 -3.56145 1980 ft 18 kts 179°
2026-05-05 11:05 40.48883 -3.56143 1980 ft 20 kts 179°
2026-05-05 11:05 40.48845 -3.56143 1980 ft 2 kts 179°
2026-05-05 11:06 40.48817 -3.56145 1980 ft 6 kts 188°
2026-05-05 11:06 40.48779 -3.56203 1980 ft 10 kts 282°
2026-05-05 11:06 40.48833 -3.56251 1983 ft 12 kts 327°
2026-05-05 11:06 40.48865 -3.56384 1980 ft 18 kts 269°
2026-05-05 11:07 40.48861 -3.56562 1980 ft 20 kts 269°
2026-05-05 11:07 40.48863 -3.56738 1980 ft 18 kts 269°
2026-05-05 11:07 40.48861 -3.56906 1980 ft 19 kts 268°
2026-05-05 11:07 40.48792 -3.57015 1983 ft 16 kts 214°
2026-05-05 11:08 40.48765 -3.57158 1980 ft 18 kts 270°
2026-05-05 11:08 40.48764 -3.57330 1983 ft 20 kts 269°
2026-05-05 11:08 40.48762 -3.57518 1980 ft 21 kts 268°
2026-05-05 11:08 40.48760 -3.57717 1980 ft 22 kts 273°
2026-05-05 11:09 40.48762 -3.57923 1980 ft 23 kts 270°
2026-05-05 11:09 40.48762 -3.58142 1980 ft 24 kts 270°
2026-05-05 11:09 40.48761 -3.58365 1980 ft 25 kts 270°
2026-05-05 11:09 40.48760 -3.58573 1980 ft 23 kts 269°
2026-05-05 11:10 40.48761 -3.58783 1980 ft 18 kts 270°
2026-05-05 11:10 40.48778 -3.58895 1981 ft 0 kts 305°
2026-05-05 11:10 40.48794 -3.58925 1980 ft 7 kts 301°
2026-05-05 11:10 40.48799 -3.58991 1981 ft 0 kts 268°